Location: Saint-Restitut
(44.3351°N, 4.7915°E)
Time: 02:33:37
(UTC+00:00)

COSMOS 2428 - Pass Details

Date: 03 February 2023
Orbit: 843 x 858 km, 70.9° (Epoch: 27 March)

Event Time Altitude Azimuth Distance (km) Brightness Sun altitude
Rises 20:09:20 0° 220° (SW) 3,391 6.2 -35.3°
Reaches altitude 10° 20:11:51 10° 225° (SW) 2,459 5.4 -35.7°
Enters shadow 20:14:31 27° 239° (WSW) 1,560 4.4 -36.2°
